N6GIW Weather Reports


Display with metric or nautical units.
time (UTC)temp
F
wind
direction
speed
MPH
gust
MPH
rain 1hr
in
rain 24hr
in
rain mn
in
humidity
%
barometer
mb
20260509135004 68 242 1.0 3.0 0.00 0.00 0.00 21 1020.9
20260509134503 67 242 1.0 3.0 0.00 0.00 0.00 21 1020.8
20260509134003 67 241 0.0 2.0 0.00 0.00 0.00 22 1020.9
20260509133504 66 240 2.0 5.0 0.00 0.00 0.00 22 1020.6
20260509133003 64 261 2.0 3.0 0.00 0.00 0.00 23 1020.6
20260509132504 64 236 0.0 2.0 0.00 0.00 0.00 24 1020.6
20260509132003 63 235 0.0 2.0 0.00 0.00 0.00 24 1020.6
20260509131503 63 235 0.0 1.0 0.00 0.00 0.00 24 1020.4
20260509130503 63 235 0.0 2.0 0.00 0.00 0.00 24 1020.4
20260509130003 62 235 1.0 3.0 0.00 0.00 0.00 24 1020.3
20260509125503 62 238 1.0 2.0 0.00 0.00 0.00 25 1020.3
20260509125004 62 236 1.0 2.0 0.00 0.00 0.00 25 1020.2
20260509124503 62 236 0.0 1.0 0.00 0.00 0.00 25 1020.2
20260509124004 62 236 0.0 1.0 0.00 0.00 0.00 25 1020.1
20260509123503 61 236 0.0 1.0 0.00 0.00 0.00 25 1020.1
20260509123005 61 236 0.0 1.0 0.00 0.00 0.00 25 1019.9
20260509122504 62 236 0.0 0.0 0.00 0.00 0.00 25 1020.1
20260509121503 62 236 0.0 1.0 0.00 0.00 0.00 25 1020.1
20260509121004 62 236 0.0 2.0 0.00 0.00 0.00 25 1020.2
20260509120503 61 236 0.0 2.0 0.00 0.00 0.00 25 1020.1
20260509120004 61 236 0.0 2.0 0.00 0.00 0.00 25 1020.1
20260509115504 61 236 0.0 0.0 0.00 0.00 0.00 25 1020.1
20260509114503 62 236 0.0 2.0 0.00 0.00 0.00 25 1020.1
20260509114004 62 236 1.0 2.0 0.00 0.00 0.00 25 1020.1
20260509113505 63 235 0.0 0.0 0.00 0.00 0.00 24 1020.1
20260509112504 63 234 1.0 2.0 0.00 0.00 0.00 24 1020.1
20260509112003 64 234 0.0 2.0 0.00 0.00 0.00 23 1020.2
20260509111504 64 234 0.0 1.0 0.00 0.00 0.00 23 1020.1
20260509111003 65 234 0.0 2.0 0.00 0.00 0.00 23 1020.1
20260509110504 65 235 1.0 3.0 0.00 0.00 0.00 23 1020.2
20260509110003 66 244 3.0 7.0 0.00 0.00 0.00 22 1020.2
20260509105503 66 246 4.0 8.0 0.00 0.00 0.00 22 1020.2
20260509105004 65 263 3.0 6.0 0.00 0.00 0.00 23 1020.1
20260509104504 66 255 3.0 5.0 0.00 0.00 0.00 23 1020.1
20260509104003 65 238 2.0 5.0 0.00 0.00 0.00 23 1020.1
20260509103004 63 242 0.0 0.0 0.00 0.00 0.00 25 1020.2
20260509102004 61 244 0.0 0.0 0.00 0.00 0.00 25 1020.3
20260509101504 61 245 0.0 0.0 0.00 0.00 0.00 25 1020.3
20260509101004 61 245 0.0 0.0 0.00 0.00 0.00 25 1020.3
20260509100003 61 245 0.0 0.0 0.00 0.00 0.00 24 1020.3
20260509095004 61 245 0.0 0.0 0.00 0.00 0.00 25 1020.4
20260509094004 61 245 0.0 0.0 0.00 0.00 0.00 24 1020.4
20260509093504 61 245 0.0 0.0 0.00 0.00 0.00 24 1020.4
20260509092503 63 245 0.0 0.0 0.00 0.00 0.00 23 1020.5
20260509092004 63 245 0.0 0.0 0.00 0.00 0.00 23 1020.5
20260509091503 64 245 0.0 1.0 0.00 0.00 0.00 23 1020.5
20260509091003 65 245 0.0 0.0 0.00 0.00 0.00 22 1020.6
20260509090503 65 245 0.0 1.0 0.00 0.00 0.00 22 1020.5
20260509085504 66 245 0.0 2.0 0.00 0.00 0.00 22 1020.6
20260509085004 66 248 0.0 2.0 0.00 0.00 0.00 22 1020.7
20260509084503 67 248 0.0 3.0 0.00 0.00 0.00 21 1020.6
20260509084004 67 263 0.0 3.0 0.00 0.00 0.00 21 1020.7
20260509083504 67 249 0.0 2.0 0.00 0.00 0.00 21 1020.6
20260509083003 67 246 0.0 1.0 0.00 0.00 0.00 21 1020.6
20260509082504 68 248 0.0 1.0 0.00 0.00 0.00 20 1020.9
20260509082004 68 239 0.0 0.0 0.00 0.00 0.00 20 1020.9
20260509081504 68 236 0.0 0.0 0.00 0.00 0.00 20 1020.9
20260509081005 68 240 0.0 1.0 0.00 0.00 0.00 20 1021.0
20260509075503 67 227 0.0 0.0 0.00 0.00 0.00 21 1020.9
20260509075004 67 227 0.0 2.0 0.00 0.00 0.00 21 1020.9
20260509074504 67 227 0.0 0.0 0.00 0.00 0.00 20 1021.1
20260509074004 68 227 0.0 0.0 0.00 0.00 0.00 20 1021.0
20260509073505 68 227 0.0 0.0 0.00 0.00 0.00 21 1021.0
20260509073004 68 227 0.0 0.0 0.00 0.00 0.00 21 1021.0
20260509072504 68 232 0.0 0.0 0.00 0.00 0.00 21 1021.0
20260509072003 68 229 0.0 0.0 0.00 0.00 0.00 21 1021.1
20260509071504 68 228 0.0 0.0 0.00 0.00 0.00 21 1021.1
20260509071003 67 229 0.0 0.0 0.00 0.00 0.00 21 1021.1
20260509070504 68 229 0.0 0.0 0.00 0.00 0.00 21 1021.2
20260509070004 67 229 0.0 0.0 0.00 0.00 0.00 22 1021.2
20260509065504 67 229 0.0 0.0 0.00 0.00 0.00 22 1021.2
20260509065004 67 229 0.0 0.0 0.00 0.00 0.00 23 1021.2
20260509064503 66 228 0.0 0.0 0.00 0.00 0.00 23 1021.3
20260509064003 67 229 0.0 0.0 0.00 0.00 0.00 23 1021.3
20260509062504 67 225 0.0 0.0 0.00 0.00 0.00 24 1021.2
20260509062004 66 223 0.0 0.0 0.00 0.00 0.00 24 1021.2
20260509061503 66 201 0.0 0.0 0.00 0.00 0.00 24 1021.1
20260509060503 66 198 0.0 0.0 0.00 0.00 0.00 25 1021.2
20260509060005 66 200 0.0 0.0 0.00 0.00 0.00 24 1021.1
20260509055504 66 259 0.0 0.0 0.00 0.00 0.00 24 1021.2
20260509055005 66 259 0.0 0.0 0.00 0.00 0.00 24 1021.2
20260509054503 67 259 0.0 0.0 0.00 0.00 0.00 24 1021.2
20260509054004 67 260 0.0 0.0 0.00 0.00 0.00 24 1021.2
20260509053504 68 260 0.0 0.0 0.00 0.00 0.00 24 1021.2
20260509052504 69 260 0.0 0.0 0.00 0.00 0.00 24 1021.2
20260509052005 69 260 0.0 0.0 0.00 0.00 0.00 23 1021.2
20260509051504 69 260 0.0 0.0 0.00 0.00 0.00 23 1021.1
20260509051003 69 260 0.0 0.0 0.00 0.00 0.00 22 1021.0
20260509050504 70 261 0.0 0.0 0.00 0.00 0.00 23 1021.0
20260509045503 71 261 0.0 0.0 0.00 0.00 0.00 23 1021.3
20260509045004 71 261 0.0 0.0 0.00 0.00 0.00 25 1021.2
20260509044504 72 261 0.0 0.0 0.00 0.00 0.00 26 1021.2
20260509043503 72 261 0.0 0.0 0.00 0.00 0.00 24 1021.1
20260509043004 73 261 0.0 0.0 0.00 0.00 0.00 24 1021.0
20260509042504 73 261 0.0 0.0 0.00 0.00 0.00 24 1020.8
20260509042004 73 261 0.0 0.0 0.00 0.00 0.00 24 1020.8
20260509041505 74 262 0.0 0.0 0.00 0.00 0.00 24 1020.7
20260509041004 74 263 0.0 0.0 0.00 0.00 0.00 24 1020.8
20260509040503 75 263 0.0 0.0 0.00 0.00 0.00 25 1020.7
20260509035504 77 288 0.0 0.0 0.00 0.00 0.00 24 1020.7
20260509035003 77 11 0.0 0.0 0.00 0.00 0.00 24 1020.7
20260509034504 77 13 0.0 0.0 0.00 0.00 0.00 25 1020.6
20260509034004 77 325 0.0 0.0 0.00 0.00 0.00 25 1020.6
20260509033503 78 300 0.0 0.0 0.00 0.00 0.00 25 1020.4
20260509033004 78 275 0.0 0.0 0.00 0.00 0.00 25 1020.3
20260509032504 78 250 0.0 0.0 0.00 0.00 0.00 25 1020.3
20260509032004 79 240 0.0 0.0 0.00 0.00 0.00 26 1020.3
20260509030505 79 214 0.0 0.0 0.00 0.00 0.00 26 1020.1
20260509025503 80 222 0.0 0.0 0.00 0.00 0.00 25 1019.9
20260509025003 80 227 0.0 0.0 0.00 0.00 0.00 25 1019.9
20260509024503 81 240 0.0 0.0 0.00 0.00 0.00 24 1019.8
20260509024004 81 224 0.0 6.0 0.00 0.00 0.00 24 1019.8
20260509023504 81 223 0.0 6.0 0.00 0.00 0.00 24 1019.8
20260509023004 82 230 0.0 0.0 0.00 0.00 0.00 24 1019.8
20260509022504 82 216 0.0 0.0 0.00 0.00 0.00 24 1019.7
20260509022003 83 213 0.0 10.0 0.00 0.00 0.00 24 1019.7
20260509021503 83 211 7.0 13.0 0.00 0.00 0.00 23 1019.7
20260509021003 83 215 7.0 12.0 0.00 0.00 0.00 23 1019.8
20260509020503 84 204 10.0 15.0 0.00 0.00 0.00 23 1019.8
20260509020004 84 216 9.0 15.0 0.00 0.00 0.00 23 1019.8
20260509015504 85 214 9.0 15.0 0.00 0.00 0.00 22 1019.7
20260509015004 85 208 9.0 16.0 0.00 0.00 0.00 21 1019.7
20260509014504 86 206 10.0 14.0 0.00 0.00 0.00 20 1019.7
20260509014004 86 211 9.0 14.0 0.00 0.00 0.00 18 1019.7
20260509013503 87 224 10.0 17.0 0.00 0.00 0.00 18 1019.7
20260509013004 87 209 9.0 13.0 0.00 0.00 0.00 16 1019.8
20260509012504 87 216 9.0 14.0 0.00 0.00 0.00 14 1019.7
20260509012003 87 217 10.0 15.0 0.00 0.00 0.00 15 1019.8
20260509011504 88 216 9.0 14.0 0.00 0.00 0.00 16 1019.8
20260509011004 88 201 10.0 18.0 0.00 0.00 0.00 16 1019.6
20260509010504 88 206 10.0 14.0 0.00 0.00 0.00 14 1019.8
20260509010003 88 215 11.0 15.0 0.00 0.00 0.00 14 1019.8
20260509005504 89 216 9.0 13.0 0.00 0.00 0.00 13 1019.7
20260509005004 89 215 11.0 17.0 0.00 0.00 0.00 12 1019.8
20260509004003 89 207 12.0 17.0 0.00 0.00 0.00 13 1020.1
20260509003504 90 202 9.0 15.0 0.00 0.00 0.00 12 1020.1
20260509003003 90 210 10.0 14.0 0.00 0.00 0.00 12 1020.2
20260509002503 90 210 10.0 16.0 0.00 0.00 0.00 11 1020.0
20260509002003 90 203 12.0 16.0 0.00 0.00 0.00 11 1020.2
20260509001504 90 223 9.0 15.0 0.00 0.00 0.00 11 1020.2
20260509000504 91 210 9.0 15.0 0.00 0.00 0.00 11 1020.4
20260509000003 91 215 9.0 15.0 0.00 0.00 0.00 10 1020.3
20260508235503 91 191 10.0 16.0 0.00 0.00 0.00 10 1020.3
20260508235004 91 214 9.0 14.0 0.00 0.00 0.00 10 1020.4
20260508234504 91 198 10.0 14.0 0.00 0.00 0.00 9 1020.3
20260508234003 92 223 9.0 16.0 0.00 0.00 0.00 10 1020.4
20260508233503 91 209 7.0 14.0 0.00 0.00 0.00 10 1020.4
20260508232503 92 181 13.0 18.0 0.00 0.00 0.00 10 1020.3
20260508232004 92 217 11.0 15.0 0.00 0.00 0.00 9 1020.4
20260508231504 93 195 10.0 16.0 0.00 0.00 0.00 9 1020.5
20260508231003 92 210 9.0 15.0 0.00 0.00 0.00 10 1020.6
20260508230504 92 200 13.0 18.0 0.00 0.00 0.00 9 1020.5
20260508225503 92 188 10.0 17.0 0.00 0.00 0.00 9 1020.6
20260508225003 92 196 10.0 18.0 0.00 0.00 0.00 9 1020.7
20260508224503 92 194 11.0 17.0 0.00 0.00 0.00 9 1020.5
20260508224004 92 228 11.0 16.0 0.00 0.00 0.00 9 1020.6
20260508223504 92 214 10.0 18.0 0.00 0.00 0.00 9 1020.6
20260508223004 92 225 11.0 17.0 0.00 0.00 0.00 9 1020.9
20260508222504 92 199 7.0 14.0 0.00 0.00 0.00 9 1021.0
20260508222004 92 219 9.0 14.0 0.00 0.00 0.00 9 1020.9
20260508221504 92 199 10.0 18.0 0.00 0.00 0.00 9 1021.0
20260508221004 92 174 12.0 20.0 0.00 0.00 0.00 9 1021.1
20260508220503 92 203 11.0 16.0 0.00 0.00 0.00 9 1021.2
20260508220003 92 183 12.0 18.0 0.00 0.00 0.00 9 1021.1
20260508215004 92 149 8.0 15.0 0.00 0.00 0.00 9 1021.2
20260508214503 92 236 6.0 12.0 0.00 0.00 0.00 9 1021.3
20260508214003 92 197 6.0 13.0 0.00 0.00 0.00 9 1021.3
20260508213503 92 166 10.0 15.0 0.00 0.00 0.00 9 1021.4
20260508213003 93 210 8.0 13.0 0.00 0.00 0.00 9 1021.4
20260508212503 93 182 9.0 14.0 0.00 0.00 0.00 9 1021.5
20260508212003 92 148 6.0 12.0 0.00 0.00 0.00 9 1021.5
20260508211503 91 116 5.0 12.0 0.00 0.00 0.00 9 1021.7
20260508211005 91 124 4.0 9.0 0.00 0.00 0.00 10 1021.7
20260508210003 92 206 7.0 12.0 0.00 0.00 0.00 9 1021.9
20260508205504 92 232 5.0 12.0 0.00 0.00 0.00 9 1021.9
20260508205004 92 168 2.0 9.0 0.00 0.00 0.00 10 1021.9
20260508204504 92 164 5.0 12.0 0.00 0.00 0.00 10 1021.9
20260508204004 92 148 7.0 13.0 0.00 0.00 0.00 9 1021.9
20260508203503 92 200 6.0 13.0 0.00 0.00 0.00 9 1021.9
20260508203004 92 219 7.0 14.0 0.00 0.00 0.00 10 1022.1
20260508202504 92 179 7.0 13.0 0.00 0.00 0.00 10 1022.1
20260508202004 92 192 1.0 9.0 0.00 0.00 0.00 10 1022.0
20260508201503 92 287 5.0 12.0 0.00 0.00 0.00 10 1022.0
20260508201004 91 33 2.0 7.0 0.00 0.00 0.00 10 1022.2
20260508200504 90 358 2.0 6.0 0.00 0.00 0.00 11 1022.3
20260508200005 90 103 2.0 10.0 0.00 0.00 0.00 11 1022.3
20260508195503 90 16 6.0 14.0 0.00 0.00 0.00 11 1022.3
20260508195003 91 347 5.0 9.0 0.00 0.00 0.00 10 1022.4
20260508194004 91 67 3.0 6.0 0.00 0.00 0.00 11 1022.5
20260508193503 90 344 5.0 12.0 0.00 0.00 0.00 11 1022.6
20260508192503 90 113 1.0 8.0 0.00 0.00 0.00 11 1022.7
20260508192004 89 15 3.0 10.0 0.00 0.00 0.00 12 1022.7
20260508191504 89 31 6.0 12.0 0.00 0.00 0.00 12 1022.7
20260508191004 89 35 6.0 17.0 0.00 0.00 0.00 11 1022.7
20260508190504 89 22 7.0 14.0 0.00 0.00 0.00 11 1022.9
20260508190003 89 11 7.0 13.0 0.00 0.00 0.00 12 1022.9
20260508185504 89 41 6.0 12.0 0.00 0.00 0.00 12 1023.0
20260508185003 88 27 6.0 10.0 0.00 0.00 0.00 12 1023.1
20260508184503 88 6 8.0 12.0 0.00 0.00 0.00 12 1023.2
20260508183503 89 22 7.0 10.0 0.00 0.00 0.00 12 1023.2
20260508183003 88 14 5.0 12.0 0.00 0.00 0.00 12 1023.2
20260508182504 88 37 4.0 10.0 0.00 0.00 0.00 12 1022.9
20260508182004 88 13 7.0 10.0 0.00 0.00 0.00 12 1022.9
20260508181504 88 10 7.0 12.0 0.00 0.00 0.00 13 1023.0
20260508181003 88 338 3.0 9.0 0.00 0.00 0.00 13 1023.2
20260508180504 88 54 1.0 3.0 0.00 0.00 0.00 13 1023.0
20260508180004 87 33 4.0 12.0 0.00 0.00 0.00 13 1023.0
20260508175004 88 18 6.0 15.0 0.00 0.00 0.00 13 1023.0
20260508174504 87 48 4.0 9.0 0.00 0.00 0.00 13 1022.9
20260508174004 87 24 5.0 10.0 0.00 0.00 0.00 13 1022.9
20260508173503 87 24 3.0 13.0 0.00 0.00 0.00 14 1022.9
20260508173004 87 27 6.0 10.0 0.00 0.00 0.00 14 1022.9
20260508172504 87 0 5.0 10.0 0.00 0.00 0.00 13 1022.9
20260508172004 87 10 3.0 10.0 0.00 0.00 0.00 14 1022.9
20260508171504 86 351 4.0 10.0 0.00 0.00 0.00 14 1022.9
20260508171004 86 342 2.0 10.0 0.00 0.00 0.00 14 1023.0
20260508170504 86 38 5.0 10.0 0.00 0.00 0.00 14 1022.9
20260508170004 85 5 6.0 12.0 0.00 0.00 0.00 15 1023.0
20260508165504 86 21 5.0 9.0 0.00 0.00 0.00 14 1023.0
20260508165004 85 273 1.0 3.0 0.00 0.00 0.00 14 1023.0
20260508164004 85 44 1.0 2.0 0.00 0.00 0.00 12 1022.9
20260508163503 86 44 2.0 3.0 0.00 0.00 0.00 12 1022.9
20260508163004 85 74 1.0 3.0 0.00 0.00 0.00 12 1023.0
20260508162504 85 93 2.0 3.0 0.00 0.00 0.00 13 1023.0
20260508162004 84 84 1.0 6.0 0.00 0.00 0.00 13 1022.9
20260508161504 84 74 1.0 3.0 0.00 0.00 0.00 13 1023.0
20260508161003 84 109 1.0 3.0 0.00 0.00 0.00 13 1023.1
20260508160503 84 88 2.0 3.0 0.00 0.00 0.00 13 1023.1
20260508160005 84 75 1.0 3.0 0.00 0.00 0.00 13 1023.1
20260508155504 83 85 1.0 3.0 0.00 0.00 0.00 13 1023.1
20260508155003 83 76 1.0 2.0 0.00 0.00 0.00 13 1023.1
20260508154004 82 67 1.0 2.0 0.00 0.00 0.00 14 1023.1
20260508153504 82 67 1.0 2.0 0.00 0.00 0.00 13 1023.2
20260508153004 82 68 1.0 3.0 0.00 0.00 0.00 14 1023.0
20260508152504 83 129 0.0 2.0 0.00 0.00 0.00 13 1023.0
20260508151004 82 162 0.0 1.0 0.00 0.00 0.00 14 1023.0
20260508150504 81 209 0.0 1.0 0.00 0.00 0.00 14 1023.0
20260508150004 79 209 0.0 0.0 0.00 0.00 0.00 15 1022.9
20260508145504 79 209 0.0 2.0 0.00 0.00 0.00 15 1023.1
20260508144504 77 209 2.0 3.0 0.00 0.00 0.00 16 1023.1
20260508144004 76 219 1.0 3.0 0.00 0.00 0.00 16 1023.2
20260508143504 75 254 2.0 3.0 0.00 0.00 0.00 16 1023.1
20260508143004 75 249 2.0 3.0 0.00 0.00 0.00 16 1023.0
20260508142004 73 240 0.0 0.0 0.00 0.00 0.00 17 1022.9
20260508141503 72 242 0.0 0.0 0.00 0.00 0.00 17 1022.9
20260508141004 71 237 0.0 3.0 0.00 0.00 0.00 17 1022.9
20260508140504 71 221 2.0 3.0 0.00 0.00 0.00 18 1022.9
20260508140004 70 222 3.0 6.0 0.00 0.00 0.00 18 1022.8
20260508135503 69 236 3.0 7.0 0.00 0.00 0.00 18 1022.6